Theta_e
359 360 361 359 356 353 354 356 355 354 352 348 349 352 351 351 353 352 352 356 359 359 359 359 361 361 360 359 360 359 359 359 358 356 357 358 358 359 359 360 361 361
358 360 361 361 359 357 355 355 356 355 354 350 347 350 352 353 354 354 353 355 357 359 359 359 360 361 360 358 358 360 359 359 359 356 356 358 358 357 358 358 359 360
359 360 361 361 360 358 356 355 356 355 354 353 350 348 351 354 355 357 356 355 355 356 357 359 359 361 361 359 358 359 358 359 360 356 355 357 358 357 356 356 357 358
359 360 360 360 360 359 358 355 356 357 354 354 353 350 349 351 354 357 358 357 356 354 356 358 358 359 360 360 359 359 357 358 360 358 357 358 359 358 357 355 356 356
361 360 360 360 359 360 360 357 356 357 355 353 355 354 351 351 354 357 359 360 358 356 355 358 358 358 359 360 360 360 358 357 358 359 360 360 360 359 357 356 356 356
362 361 361 360 360 360 361 359 358 357 356 354 354 355 354 353 355 356 359 361 359 356 354 355 358 358 358 360 360 360 358 355 354 358 361 362 360 358 356 355 356 358
362 361 361 361 360 360 361 362 360 358 357 356 354 355 356 356 356 357 358 360 359 356 354 354 356 358 357 358 360 360 360 357 355 356 359 362 361 359 357 356 356 358
361 362 362 361 360 361 362 363 362 360 359 357 356 356 356 357 358 358 357 358 359 357 355 354 355 358 358 357 359 361 361 360 357 357 359 361 361 361 361 359 358 359
363 363 362 361 361 361 361 362 362 361 360 359 358 356 356 357 358 359 358 357 357 357 358 356 356 358 359 357 358 360 361 360 357 358 359 360 362 361 361 361 360 360
363 363 362 362 361 361 360 360 360 361 361 360 359 355 356 358 359 359 360 359 358 358 359 360 359 360 360 359 358 359 361 361 359 358 359 361 362 361 360 360 359 359
363 362 362 362 361 359 359 359 359 359 360 361 360 356 355 358 359 360 360 361 361 359 361 361 361 361 361 360 358 358 359 361 361 360 359 361 362 362 361 360 359 359
362 362 362 362 361 359 358 358 357 357 358 360 360 357 355 356 360 360 360 361 362 361 361 362 363 363 362 360 358 358 359 359 360 360 360 360 362 363 362 361 360 360
363 362 361 362 361 359 358 357 357 355 356 359 359 358 356 355 358 361 360 361 363 362 362 363 364 363 363 362 358 356 358 359 358 359 360 360 362 363 361 360 359 360
363 362 360 361 361 359 357 357 356 355 354 356 358 359 357 354 356 360 361 361 363 364 363 364 365 364 363 364 362 357 357 359 359 358 358 360 361 361 360 357 356 356
364 363 362 361 361 360 358 357 357 356 354 355 358 359 358 355 353 357 361 362 363 364 364 362 364 364 364 364 364 362 357 356 359 359 357 357 359 360 359 358 355 352
364 364 362 362 362 362 360 358 357 357 356 355 358 360 359 357 355 354 359 361 362 363 364 363 362 363 363 361 361 362 360 356 356 359 358 356 356 358 358 357 356 354
366 365 364 363 362 363 362 360 358 358 358 357 359 360 361 360 358 356 356 359 361 363 364 362 361 359 360 360 357 357 360 360 356 357 359 359 356 357 357 355 354 353
368 367 367 365 364 365 365 362 360 359 359 360 360 362 363 362 360 358 357 357 359 362 363 362 360 358 359 359 356 352 353 358 359 356 357 359 359 357 356 356 354 351
369 368 369 368 368 368 368 366 363 361 361 362 362 364 364 365 363 361 360 358 358 360 362 362 360 359 359 358 356 352 349 353 358 357 355 357 359 358 356 356 356 355
370 370 370 370 369 369 370 368 365 364 364 364 364 364 366 366 364 363 362 361 360 360 362 362 361 360 361 359 357 354 351 351 354 357 355 354 357 359 358 357 358 359
370 370 370 371 371 370 371 370 368 367 366 364 364 365 366 367 366 364 364 364 362 360 361 362 361 360 361 360 359 358 356 354 355 356 357 356 356 358 361 361 360 361
371 371 371 371 371 370 371 370 369 369 368 366 365 365 367 368 366 365 365 365 364 362 361 361 361 360 360 361 361 359 358 356 356 358 358 358 358 358 361 362 363 364
370 371 371 371 371 372 371 370 370 370 369 367 366 365 366 366 367 366 364 365 365 364 362 362 360 359 359 359 360 361 359 358 357 359 360 359 360 359 360 362 364 364
370 370 371 372 372 371 370 371 371 370 370 368 366 365 363 364 366 365 365 364 365 365 365 363 360 359 360 359 359 359 359 358 358 359 360 361 361 361 361 362 363 362
370 370 371 371 371 371 371 370 370 369 370 368 366 364 362 362 364 365 365 364 364 365 365 364 362 360 360 360 359 359 358 358 359 361 361 362 363 363 363 363 363 362
370 371 371 372 372 371 370 370 369 369 369 369 368 365 362 362 362 363 364 365 363 362 363 363 362 361 361 361 360 360 357 357 360 361 362 362 363 363 363 364 364 364
Wind_Speed
25 24 24 23 23 23 22 21 20 19 19 19 18 17 17 17 16 16 15 15 15 14 14 13 13 12 11 10 10 9 9 9 9 8 8 9 9 9 9 8 7 6
27 25 24 23 23 23 23 22 21 20 20 20 19 17 16 16 17 17 17 16 16 15 14 14 14 13 12 11 11 11 10 10 10 9 9 9 9 9 9 9 8 7
28 27 25 24 23 23 23 23 22 21 20 20 20 18 16 17 17 18 18 18 16 15 15 15 15 14 13 13 12 12 11 11 11 10 9 10 10 10 10 9 8 7
29 28 26 25 23 23 23 23 23 22 21 20 20 20 18 17 17 18 18 18 17 16 16 16 15 15 14 14 13 13 12 12 11 10 10 10 10 10 10 9 8 8
31 29 27 25 23 22 23 23 23 23 22 21 20 20 20 18 18 19 19 19 18 17 16 16 16 16 15 15 15 14 13 13 12 11 11 11 10 11 10 10 9 9
31 29 28 26 24 23 23 23 24 23 22 22 20 20 20 20 20 19 19 19 19 18 17 17 17 17 16 16 15 15 14 13 12 12 12 12 11 11 10 10 10 10
31 30 29 27 26 25 24 23 23 23 22 22 21 20 20 21 21 21 20 19 19 19 18 18 18 18 17 17 16 16 15 14 13 13 13 13 12 12 11 10 10 10
32 31 30 28 27 26 25 24 23 23 23 22 22 21 21 21 22 22 21 20 19 18 19 19 19 19 18 17 17 16 16 15 14 14 14 14 13 13 12 11 11 11
31 31 30 30 29 27 26 25 24 24 24 23 22 22 22 22 22 22 22 21 20 19 19 19 19 19 19 18 17 17 17 16 15 15 16 15 15 15 14 13 12 12
32 31 31 31 30 28 28 27 25 24 24 24 24 23 23 23 22 21 22 22 21 20 20 20 20 20 19 18 18 18 18 17 16 16 16 16 16 16 15 14 14 13
33 32 32 32 31 29 28 28 27 25 25 25 25 24 23 23 23 22 22 22 22 22 21 21 21 20 20 19 18 18 18 18 17 17 17 17 17 17 16 15 15 15
35 34 33 33 32 30 29 28 28 26 26 25 25 25 24 23 23 23 23 23 23 22 22 22 21 21 21 20 19 19 19 18 18 18 18 18 17 17 17 16 16 16
36 35 35 34 33 32 30 29 29 28 27 26 25 25 25 24 24 24 24 24 24 23 23 23 22 22 22 22 21 20 19 19 19 18 18 18 18 18 18 17 17 17
36 35 35 34 33 32 30 29 29 28 27 26 25 25 26 26 25 25 24 24 24 24 23 23 23 23 22 22 22 21 20 20 19 19 18 18 18 18 18 18 18 17
35 34 33 33 32 32 32 30 29 29 28 27 26 25 25 26 25 25 24 24 24 25 24 24 23 23 24 24 23 22 22 21 20 20 20 19 18 18 18 18 18 18
33 32 32 33 33 32 33 31 29 28 28 28 27 26 25 25 25 25 25 24 24 25 25 24 24 24 25 26 26 24 23 22 21 21 21 20 19 19 19 19 19 19
32 32 32 33 33 32 33 32 30 29 28 28 27 26 25 25 25 25 25 24 24 25 25 25 25 25 26 29 30 28 25 22 22 21 21 21 21 20 20 19 20 20
32 31 32 32 32 32 32 33 31 29 28 28 28 27 26 25 24 25 25 24 24 24 24 24 25 25 28 31 32 32 30 25 21 21 21 21 21 22 21 20 20 20
32 32 31 32 32 31 30 31 31 30 29 29 28 27 26 25 25 25 25 25 24 23 24 24 24 25 28 31 32 34 34 30 24 20 21 21 21 21 22 21 21 21
32 32 31 31 31 30 29 30 31 30 29 29 28 28 27 26 26 25 25 26 25 24 23 23 23 25 27 30 32 32 34 34 28 21 19 20 21 21 21 22 22 21
31 31 30 30 30 30 30 30 31 30 29 28 27 27 27 26 26 25 25 26 26 25 24 23 23 25 26 28 31 31 31 33 31 24 20 19 20 21 21 21 22 22
31 31 30 30 30 30 30 30 30 30 29 27 26 26 26 25 25 25 25 25 26 26 26 25 24 25 26 27 29 29 28 30 30 27 23 22 20 20 21 21 21 22
32 31 30 30 30 30 30 29 29 29 28 27 26 25 25 25 25 25 25 25 26 26 27 26 25 27 28 28 28 28 27 29 30 26 24 23 22 21 22 22 23 23
32 31 31 30 31 31 30 29 28 28 27 27 27 26 25 25 24 24 24 25 26 27 27 26 26 28 30 30 30 30 29 30 30 26 23 22 22 22 23 22 23 25
31 31 31 30 31 31 30 29 28 27 26 26 26 26 25 24 24 23 24 25 26 27 28 28 27 28 31 33 33 33 33 33 30 25 22 21 21 21 23 23 23 25
30 31 31 30 30 29 28 27 26 25 25 25 25 24 24 24 24 23 23 24 24 25 27 28 27 27 29 32 34 35 35 35 30 24 22 22 21 21 22 22 23 24
Wind_Direction
200 199 199 199 197 199 200 200 201 203 204 207 210 211 210 208 207 207 205 206 208 210 212 211 209 209 209 213 217 220 226 230 232 232 231 235 238 243 246 244 242 240
199 200 198 198 198 198 201 202 203 204 205 208 212 212 210 207 205 204 204 204 205 208 210 211 210 209 209 212 217 221 223 228 232 232 232 235 239 243 247 245 242 238
197 198 198 199 199 198 200 202 203 205 207 208 211 212 209 207 204 202 203 203 204 207 209 211 211 210 210 211 215 220 223 226 230 231 232 234 237 241 244 246 244 237
196 197 197 199 200 198 199 202 203 204 207 209 209 210 211 208 204 202 203 203 204 206 207 209 210 209 210 210 214 220 223 227 229 229 232 233 234 238 242 244 244 240
194 194 196 198 198 198 199 201 203 202 205 208 207 207 208 206 203 202 203 202 201 204 205 207 208 208 209 208 212 218 222 227 227 224 229 234 234 236 237 238 238 238
192 193 194 196 196 197 198 200 202 202 203 206 206 205 204 203 203 202 201 201 201 203 206 206 206 206 207 206 208 214 219 226 226 221 224 231 235 237 236 236 235 233
191 192 193 194 195 196 198 199 200 201 203 204 204 203 202 201 201 202 202 202 203 205 207 207 206 205 206 205 206 210 215 221 225 222 222 226 232 236 236 235 235 234
190 190 190 192 194 195 197 198 199 199 200 201 202 202 202 201 201 203 203 204 205 206 207 207 205 204 205 205 206 208 212 217 221 221 221 223 227 231 233 234 234 235
189 189 190 192 193 195 198 198 198 198 198 199 201 202 201 202 203 203 203 204 206 206 206 205 203 203 205 206 207 208 212 216 218 219 220 222 225 227 229 231 232 234
189 191 191 192 194 196 199 199 198 198 198 199 201 202 202 202 203 204 203 203 205 206 204 204 202 201 204 207 208 209 212 216 218 219 220 221 224 227 229 230 231 233
190 192 192 193 196 198 199 200 200 199 197 198 201 203 203 201 200 202 202 201 204 205 204 203 202 201 203 206 209 211 213 215 218 219 221 222 223 226 228 229 230 232
191 193 194 195 196 198 199 200 201 201 198 197 200 203 204 201 199 200 202 202 203 204 204 203 202 202 203 206 210 212 213 215 218 219 220 222 223 224 226 228 230 231
193 194 195 196 196 199 200 200 201 202 200 198 198 201 203 202 200 199 200 201 201 203 204 203 202 202 204 206 209 211 212 214 217 219 220 222 223 224 226 228 230 231
193 194 195 195 196 198 199 200 201 202 202 199 198 200 202 203 202 200 199 200 201 202 203 203 202 203 204 205 207 210 212 214 216 219 220 221 223 225 227 230 232 234
192 192 193 194 194 195 197 200 201 201 202 200 198 200 202 204 204 202 199 199 200 200 202 203 204 205 205 206 205 207 210 214 217 218 220 222 223 225 228 230 233 237
189 190 191 192 193 194 195 198 199 199 201 200 199 200 201 203 205 204 202 200 200 200 201 203 206 208 208 208 207 206 208 213 217 218 220 221 222 225 228 230 234 238
187 188 189 190 191 192 193 194 196 197 199 199 199 199 200 202 203 205 206 204 202 202 203 204 207 210 210 211 212 211 209 211 215 217 218 219 220 223 226 230 234 238
184 185 187 188 189 189 190 191 194 196 197 198 198 198 198 200 202 205 208 208 206 206 207 208 210 211 212 213 216 216 213 210 213 216 217 218 219 221 224 228 232 237
183 183 185 185 185 186 186 187 190 194 196 196 197 197 197 199 202 204 206 209 210 210 210 212 215 214 213 215 218 220 218 214 213 217 219 219 220 221 223 226 229 232
183 183 183 183 183 183 182 184 188 191 194 194 195 196 196 198 201 203 205 208 210 212 213 215 218 217 216 217 220 222 222 219 217 219 224 225 223 223 224 225 226 228
183 183 182 181 181 181 182 185 187 190 193 194 195 196 196 198 201 203 204 206 208 212 215 216 220 221 219 219 221 223 225 223 221 223 229 231 228 226 225 226 226 226
183 182 182 181 181 182 183 186 188 189 191 194 197 199 199 198 201 203 204 205 207 211 215 218 221 223 223 221 221 222 223 222 222 224 229 232 232 229 228 227 227 226
184 183 182 182 182 184 186 187 188 188 190 192 197 200 201 200 202 204 206 207 207 209 212 217 221 224 225 224 221 219 219 219 220 221 226 229 231 231 230 229 229 228
185 184 183 183 184 186 188 188 188 188 189 192 197 202 204 204 204 206 208 208 209 210 211 215 220 223 224 223 222 220 218 218 218 218 221 225 227 230 231 231 231 231
186 186 185 186 186 188 189 188 188 189 190 192 198 203 207 208 207 208 210 210 212 214 213 214 218 223 223 222 222 221 220 218 215 214 218 220 222 227 229 229 232 234
186 187 187 188 188 188 189 189 188 190 191 193 198 203 208 211 212 212 214 214 215 217 215 214 217 222 224 222 221 221 221 218 213 211 215 217 219 224 228 228 229 232